FW1603 Weather Reports


time (UTC)temp
C
wind
direction
speed
KPH
gust
KPH
rain 1hr
cm
rain 24hr
cm
rain mn
cm
humidity
%
barometer
mb
20260906140101 27 175 0.0 1.6 0.00 0.00 0.00 1 1012.3
20260906134557 26 279 0.0 3.2 0.00 0.00 0.00 1 1012.3
20260906133058 26 246 0.0 0.0 0.00 0.00 0.00 1 1012.2
20260906131600 26 186 0.0 0.0 0.00 0.00 0.00 1 1012.2
20260906130054 26 186 0.0 0.0 0.00 0.00 0.00 1 1012.4
20260906124539 26 186 0.0 0.0 0.00 0.03 0.00 1 1012.3
20260906123037 25 185 0.0 0.0 0.00 0.03 0.00 1 1012.2
20260906121536 25 185 0.0 0.0 0.00 0.03 0.00 1 1012.1
20260906120025 25 185 0.0 0.0 0.00 0.03 0.00 1 1012.0
20260906114528 24 185 0.0 0.0 0.00 0.03 0.00 1 1012.0
20260906113017 24 185 0.0 0.0 0.00 0.03 0.00 1 1011.8
20260906111511 24 185 0.0 0.0 0.00 0.03 0.00 1 1011.5
20260906110008 25 185 0.0 0.0 0.00 0.03 0.00 1 1011.4
20260906104505 25 185 0.0 0.0 0.00 0.03 0.00 1 1011.3
20260906103103 25 201 0.0 0.0 0.00 0.03 0.00 1 1011.2
20260906101558 24 201 0.0 0.0 0.00 0.03 0.00 1 1011.1
20260906100052 24 212 0.0 0.0 0.00 0.03 0.00 1 1010.9
20260906094557 24 212 0.0 0.0 0.00 0.03 0.00 1 1011.0
20260906093048 24 212 0.0 0.0 0.00 0.03 0.00 1 1010.8
20260906091538 24 212 0.0 0.0 0.00 0.03 0.00 1 1010.7
20260906090042 24 212 0.0 0.0 0.00 0.03 0.00 1 1010.6
20260906084530 24 212 0.0 0.0 0.00 0.03 0.00 1 1010.4
20260906083024 24 212 0.0 0.0 0.00 0.03 0.00 1 1010.3
20260906081523 24 212 0.0 0.0 0.00 0.03 0.00 1 1010.3
20260906080019 24 212 0.0 0.0 0.00 0.03 0.00 1 1010.4
20260906074511 24 212 0.0 0.0 0.00 0.03 0.00 1 1010.5
20260906073007 24 212 0.0 0.0 0.00 0.03 0.00 1 1010.5
20260906071501 25 213 0.0 0.0 0.00 0.03 0.00 1 1010.3
20260906070058 25 212 0.0 0.0 0.00 0.03 0.00 1 1010.4
20260906064554 25 212 0.0 0.0 0.00 0.03 0.00 1 1010.8
20260906063049 25 212 0.0 0.0 0.00 0.03 0.00 1 1010.9
20260906061549 25 212 0.0 0.0 0.00 0.03 0.00 1 1010.9
20260906060048 25 212 0.0 0.0 0.00 0.03 0.00 1 1011.1
20260906054542 25 212 0.0 0.0 0.00 0.03 0.00 1 1011.2
20260906053031 25 212 0.0 0.0 0.00 0.03 0.00 1 1011.3
20260906051526 25 212 0.0 0.0 0.00 0.03 0.00 1 1011.5
20260906050023 25 212 0.0 0.0 0.00 0.03 0.00 1 1011.7
20260906044519 25 212 0.0 0.0 0.00 0.03 0.00 1 1011.6
20260906043026 26 212 0.0 0.0 0.00 0.03 0.00 1 1011.7
20260906041509 26 212 0.0 0.0 0.00 0.03 0.00 1 1012.0
20260906040005 26 212 0.0 0.0 0.00 0.03 0.00 1 1011.9
20260906034501 26 212 0.0 0.0 0.00 0.03 0.03 1 1011.9
20260906033056 26 212 0.0 0.0 0.00 0.03 0.03 1 1012.0
20260906031552 26 212 0.0 0.0 0.00 0.03 0.03 4 1012.1
20260906030048 26 212 0.0 0.0 0.00 0.03 0.03 7 1011.9
20260906024547 27 212 0.0 0.0 0.00 0.03 0.03 7 1012.0
20260906023038 26 291 0.0 0.0 0.00 0.03 0.03 7 1011.9
20260906021540 26 51 0.0 0.0 0.00 0.03 0.03 9 1011.6
20260906020030 26 51 0.0 0.0 0.00 0.03 0.03 13 1011.7
20260906014526 26 44 0.0 0.0 0.00 0.03 0.03 14 1011.5
20260906013021 26 71 0.0 0.0 0.00 0.03 0.03 16 1011.3
20260906011517 26 90 0.0 0.0 0.00 0.03 0.03 16 1011.2
20260906010012 26 74 0.0 0.0 0.00 0.03 0.03 18 1011.1
20260906004508 27 74 0.0 0.0 0.00 0.03 0.03 19 1010.9
20260906003004 27 74 0.0 0.0 0.00 0.03 0.03 26 1010.8
20260906001604 27 74 0.0 0.0 0.00 0.03 0.03 23 1010.7
20260906000056 28 74 0.0 0.0 0.00 0.03 0.03 22 1010.8
20260905234551 28 74 0.0 0.0 0.00 0.03 0.03 31 1010.5
20260905233046 28 78 0.0 0.0 0.00 0.03 0.03 36 1010.5
20260905231542 28 158 0.0 0.0 0.00 0.03 0.03 41 1010.4
20260905230039 28 121 0.0 0.0 0.00 0.03 0.03 36 1010.6
20260905224534 28 86 0.0 0.0 0.00 0.03 0.03 23 1010.8
20260905223042 28 77 0.0 0.0 0.00 0.03 0.03 28 1010.9
20260905221524 28 77 0.0 0.0 0.00 0.03 0.03 35 1011.3
20260905220021 28 163 0.0 0.0 0.00 0.03 0.03 34 1011.3
20260905214516 29 61 0.0 0.0 0.00 0.03 0.03 36 1011.4
20260905213011 29 61 0.0 0.0 0.00 0.03 0.03 42 1011.2
20260905211506 29 198 0.0 0.0 0.00 0.03 0.03 41 1011.3
20260905210001 29 194 0.0 0.0 0.00 0.03 0.03 42 1011.8
20260905204600 29 194 0.0 0.0 0.00 0.03 0.03 25 1011.4
20260905203053 30 194 0.0 0.0 0.00 0.03 0.03 36 1011.2
20260905201549 30 194 0.0 0.0 0.00 0.03 0.03 47 1011.2
20260905200110 30 206 0.0 0.0 0.00 0.03 0.03 50 1011.4
20260905194540 30 206 0.0 0.0 0.00 0.03 0.03 50 1011.6
20260905193040 30 203 0.0 0.0 0.00 0.03 0.03 31 1011.7
20260905191537 29 251 0.0 0.0 0.00 0.03 0.03 9 1011.7
20260905190033 28 251 0.0 0.0 0.00 0.03 0.03 1 1011.7
20260905184535 27 251 0.0 0.0 0.00 0.03 0.03 1 1012.1
20260905183034 27 251 0.0 0.0 0.00 0.03 0.03 1 1012.0
20260905181520 27 251 0.0 0.0 0.00 0.03 0.03 1 1012.1
20260905180016 27 251 0.0 0.0 0.00 0.03 0.03 1 1012.3
20260905174513 27 251 0.0 0.0 0.00 0.03 0.03 1 1012.4
20260905173010 27 251 0.0 0.0 0.00 0.03 0.03 12 1012.6
20260905171501 28 257 0.0 4.8 0.00 0.03 0.03 51 1013.0
20260905170058 31 218 0.0 0.0 0.00 0.03 0.03 64 1012.7
20260905164553 31 128 0.0 6.4 0.00 0.03 0.03 64 1012.8
20260905163048 31 223 0.0 3.2 0.00 0.03 0.03 63 1013.1
20260905161544 31 231 0.0 4.8 0.00 0.03 0.03 61 1013.2
20260905160040 30 214 0.0 4.8 0.00 0.03 0.03 60 1013.3
20260905154535 30 184 4.8 9.7 0.00 0.03 0.03 61 1013.4
20260905153035 30 177 3.2 8.0 0.00 0.03 0.03 60 1013.7
20260905151527 30 188 3.2 6.4 0.00 0.03 0.03 52 1013.7
20260905150025 29 228 0.0 6.4 0.00 0.03 0.03 40 1013.7
20260905144519 29 171 1.6 9.7 0.00 0.03 0.03 40 1013.8
20260905143020 28 178 0.0 6.4 0.00 0.03 0.03 33 1013.8
20260905141512 28 120 0.0 4.8 0.00 0.03 0.03 17 1013.7